Miscellaneous Local Product
Issued by NWS Hastings, NE

Home | Current Version | Previous Version | Graphics & Text | Print | Product List | Glossary On
Versions: 1 2 3 4 5 6 7 8 9 10 11 12 13 14 15 16 17 18 19 20 21 22 23 24 25 26 27 28 29 30 31 32 33 34 35 36 37 38 39 40 41 42 43 44 45 46 47 48 49 50
000
AXUS43 KGID 172102
MISGRI

GID CWA HOURLY WEATHER ROUNDUP
NATIONAL WEATHER SERVICE HASTINGS NE
400 PM CDT THU APR 17 2014

NOTE: "FAIR" INDICATES FEW OR NO CLOUDS BELOW 12,000 FEET WITH NO
SIGNIFICANT WEATHER AND/OR OBSTRUCTIONS TO VISIBILITY.

...SOUTH CENTRAL NEBRASKA...

CITY           SKY/WX    TMP DP  RH WIND       PRES   REMARKS
GRAND ISLAND   SUNNY     52  25  35 SW8       30.24F
HASTINGS       SUNNY     52  27  38 VRB3      30.23F
KEARNEY        SUNNY     52  28  40 SW9       30.23F
ORD            PTSUNNY   50  24  36 VRB6      30.21F
YORK           SUNNY     54  25  32 CALM      30.24F
AURORA         SUNNY     52  24  34 CALM      30.25F
LEXINGTON      SUNNY     50  31  48 S6        30.21F
HOLDREGE       SUNNY     51  29  42 S3        30.22F
HEBRON         SUNNY     53  27  36 N6        30.25F

...NEBRASKA PANHANDLE...

CITY           SKY/WX    TMP DP  RH WIND       PRES   REMARKS
CHADRON        MOSUNNY   53  38  56 S15G21    30.05F
ALLIANCE       PTSUNNY   47  35  63 S15G25    30.08F
SCOTTSBLUFF    SUNNY     57  37  47 SE16G24   30.04F
SIDNEY         SUNNY     55  36  48 SE17G24   30.08F

...WESTERN AND NORTH CENTRAL NEBRASKA...

CITY           SKY/WX    TMP DP  RH WIND       PRES   REMARKS
VALENTINE      CLOUDY    48  23  37 S16G22    30.17F
AINSWORTH      CLOUDY    50  23  34 SE15      30.18F
ONEILL         PTSUNNY   49  17  27 S7        30.24F
BROKEN BOW     PTSUNNY   49  24  37 S9        30.20F
IMPERIAL       CLOUDY    52  35  52 S16G24    30.16F
NORTH PLATTE   SUNNY     52  31  44 S14G21    30.18F
MCCOOK         SUNNY     53  33  46 SE10      30.20F

...EASTERN NEBRASKA...

CITY           SKY/WX    TMP DP  RH WIND       PRES   REMARKS
NORFOLK        MOSUNNY   51  21  30 VRB3      30.24F
SO SIOUX CITY  SUNNY     50  25  37 CALM      30.27F
TEKAMAH        SUNNY     55  22  27 NW7       30.26F
COLUMBUS       SUNNY     54  27  35 SW3       30.26F
ALBION         SUNNY     51  20  30 S7        30.24F
OMAHA EPPLEY   MOSUNNY   53  25  33 N5        30.26F
MILLARD        SUNNY     51  26  38 CALM      30.26F
LINCOLN        SUNNY     57  25  29 MISG      30.27F
NEBRASKA CITY  SUNNY     50  28  42 CALM      30.27F
BEATRICE       SUNNY     53  27  36 CALM      30.25F
FALLS CITY     SUNNY     53  29  39 VRB3      30.26F

...NORTHERN KANSAS...

CITY           SKY/WX    TMP DP  RH WIND       PRES   REMARKS
GOODLAND       CLOUDY    52  36  54 SW21      30.18F
HILL CITY      SUNNY     56  29  35 MISG      30.23F
PHILLIPSBURG   SUNNY     55  27  33 NW3       30.24F
SMITH CENTER   SUNNY     52  27  37 S3        30.25F
BELOIT         SUNNY     54  27  35 W5        30.24F
HAYS           SUNNY     55  30  38 CALM      30.24F
RUSSELL        SUNNY     54  28  36 NW3       30.23F
CONCORDIA      SUNNY     54  29  38 E6        30.25F
SALINA         SUNNY     56  30  37 NE5       30.26F
TOPEKA         CLOUDY    51  33  50 CALM      30.28F



USA.gov is the U.S. government's official web portal to all federal, state and local government web resources and services.